Voltar ao catálogo

ATLAS 5 CENTAUR DEB

AtivoHEO
NORAD 44849·DEBRIS·🇺🇸 United States

Lançado Sep 17, 2014 de Cape Canaveral Space Force Station

Loading…

Próximas Passagens (próximas 24 horas)

TLE

AtualizadoSource: Space-Track

Época: Sep 10, 2026, 05:39 UTC

1 44849U 14055CH  26253.23542167 -.00000059  00000-0  00000-0 0  9997
2 44849  21.3391  77.0361 5058387 284.4748  26.3076  1.95521549 50669

Acompanhe ATLAS 5 CENTAUR DEB em tempo real com AllMySat

Download on the App Store